Flag for Switzerland Weather past 2 weeks in Yverdon-les-Bains, Vaud, Switzerland

Now
33 °F

Chilly.


Feels Like: 28 °F
Forecast: 21 / 34 °F
Wind: 6 mph from Southwest

Location: Payerne

Current Time: Jan 31, 2015 at 9:01:30 PM

Latest Report: Jan 31, 2015 at 8:00 PM


Visibility: N/A

Pressure: 29.23 "Hg

Humidity: 90%

Dew point: 31 °F

Location of Yverdon-les-BainsLocation

Historic Weather in Yverdon-les-Bains — Graph

°F

Yverdon-les-Bains temperature yesterday

Maximum temperature yesterday: 38 °F (at 1:00 AM)
Minimum temperature yesterday: 31 °F (at 10:00 AM)
Average temperature yesterday: 33 °F

Past Weeks' High & Low Weather Summary

 TemperatureHumidityPressure
High40 °F (Jan 16, 7:00 PM)100% (Jan 19, 8:00 PM)30.46 "Hg (Jan 19, 8:00 PM)
Low24 °F (Jan 28, 2:00 AM)60% (Jan 24, 2:00 PM)28.94 "Hg (Jan 29, 11:00 PM)
Average33 °F87%29.94 "Hg
* Reported Jan 16 7:00 PM — Jan 31 7:00 PM, Yverdon-les-Bains, Weather by CustomWeather, © 2014

Note: Actual official high and low records may vary slightly from our data, if they occured in-between our weather recording intervals... More about our weather records

Advertising

Yverdon-les-Bains weather history for previous 24 hours

 ConditionsComfort  
Time TempWeatherWind HumidityBarometerVisibility
7:00 PM
Jan 31
33 °FLight snow. Overcast.7 mph92%29.21 "Hg4 mi
6:00 PM32 °FChilly.3 mph96%29.21 "HgN/A
5:00 PM32 °FChilly.5 mph98%29.18 "HgN/A
4:00 PM34 °FChilly.6 mph85%29.15 "HgN/A
3:00 PM32 °FChilly.7 mph93%29.15 "HgN/A
2:00 PM35 °FChilly.12 mph75%29.15 "HgN/A
1:00 PM36 °FOvercast.7 mph68%29.12 "Hg5 mi
12:00 PM35 °FChilly.7 mph69%29.15 "HgN/A
11:00 AM33 °FChilly.3 mph78%29.15 "HgN/A
10:00 AM29 °FOvercast.2 mph86%29.15 "Hg19 mi
9:00 AM29 °FChilly.6 mph81%29.12 "HgN/A
8:00 AM27 °FChilly.3 mph81%29.15 "HgN/A
7:00 AM28 °FPassing clouds.5 mph82%29.12 "Hg16 mi
6:00 AM29 °FChilly.2 mph86%29.12 "HgN/A
5:00 AM32 °FChilly.5 mph81%29.12 "HgN/A
3:00 AM33 °FChilly.6 mph89%29.12 "HgN/A
2:00 AM34 °FChilly.7 mph90%29.12 "HgN/A
1:00 AM33 °FOvercast.7 mph88%29.09 "Hg11 mi
12:00 AM34 °FChilly.8 mph85%29.09 "HgN/A
11:00 PM
Jan 30
34 °FChilly.7 mph88%29.06 "HgN/A
10:00 PM34 °FOvercast.7 mph86%29.06 "Hg11 mi
9:00 PM33 °FChilly.9 mph87%29.03 "HgN/A
Weather by CustomWeather, © 2014

See weather overviewHow to use our weather pages